Location: Azul
(36.7830°S, 59.8500°W)
Time: 00:05:31
(UTC-03:00)

TIGRISAT - Pass Details

Date: 28 October 2021
Orbit: 603 x 689 km, 97.7° (Epoch: 27 November)

Event Time Altitude Azimuth Distance (km) Brightness Sun altitude
Rises 20:15:30 0° 336° (NNW) 2,850 ? -9.6°
Reaches altitude 10° 20:18:15 10° 317° (NW) 1,961 ? -10.1°
Maximum altitude 20:21:10 18° 273° (W) 1,526 ? -10.6°
Drops below altitude 10° 20:24:09 10° 230° (SW) 2,000 ? -11.1°
Sets 20:27:00 0° 210° (SSW) 2,929 ? -11.6°
